Theta_e
358 353 354 349 349 348 347 347 346 347 347 348 347 344 341 340 339 338 338 353 351 352 354 355 358 358 359 357 356 357 357 355 355 353 351 351 350 350 350 350 350 350 349
363 355 356 354 353 352 351 351 351 352 353 353 351 351 350 349 345 345 342 345 353 352 355 357 359 361 361 360 358 357 356 354 354 354 352 351 350 350 351 350 350 350 349
365 365 353 354 352 355 356 355 354 356 352 351 352 348 348 350 349 352 347 348 347 351 353 356 358 359 361 362 360 358 355 353 353 353 352 351 350 350 350 350 350 350 349
361 363 357 356 357 359 354 353 352 351 350 349 349 349 349 349 349 353 349 350 347 347 350 356 357 357 359 361 361 360 356 352 351 350 351 351 351 350 349 349 350 350 349
359 358 355 353 363 357 355 353 352 354 351 350 347 349 351 348 350 344 350 352 354 350 350 352 354 354 355 358 360 361 359 355 351 350 349 350 351 350 349 349 349 348 348
358 358 356 360 361 355 352 352 362 354 356 351 345 344 351 349 349 349 351 349 350 353 353 357 355 352 351 355 357 359 360 358 354 352 350 348 349 350 350 349 348 348 347
358 363 356 362 361 359 359 357 354 356 349 349 343 341 343 349 353 348 347 347 349 351 352 353 357 353 352 350 351 354 357 359 358 356 351 348 348 349 350 349 348 347 346
360 362 364 361 363 350 358 356 357 349 345 345 339 336 330 335 339 346 346 348 350 345 344 350 353 355 356 354 353 350 354 357 358 358 354 349 348 349 350 349 348 347 346
360 360 360 359 360 357 348 358 354 350 341 341 349 337 329 325 333 339 343 340 348 341 344 348 351 352 356 353 351 352 350 352 356 357 356 352 351 350 350 349 348 347 347
359 358 360 359 361 353 354 347 346 348 349 339 336 338 347 343 331 329 337 341 343 342 351 346 348 349 353 352 352 349 346 347 351 354 354 353 353 352 350 348 348 347 347
358 357 356 353 350 345 350 346 345 348 341 337 332 331 336 332 339 333 327 330 337 339 340 342 347 348 348 349 351 348 341 340 343 345 347 349 351 352 352 350 349 347 348
348 346 343 345 346 346 341 342 345 344 344 341 334 334 327 324 324 327 325 329 329 332 336 340 344 345 348 349 348 340 337 335 334 335 338 341 344 348 351 351 352 351 350
339 348 345 347 340 345 341 345 345 343 340 335 343 329 326 325 326 326 325 324 323 327 330 334 338 343 343 348 348 340 340 332 329 328 330 333 336 340 344 346 348 349 350
333 348 344 341 341 338 342 344 333 331 338 335 341 338 326 324 325 324 322 322 321 323 327 334 333 336 344 345 345 336 341 331 328 326 326 327 330 333 336 339 341 342 343
331 334 335 339 340 338 339 343 333 336 338 338 335 339 331 326 326 326 325 322 320 316 319 325 326 337 336 338 341 344 342 335 329 326 324 323 325 328 330 332 333 335 336
335 335 335 337 337 338 340 342 335 336 338 332 331 333 334 329 329 327 326 323 322 320 317 323 324 332 337 340 342 337 340 333 329 325 324 322 321 323 325 326 327 329 331
329 329 330 331 332 335 338 339 338 337 335 335 335 332 332 335 328 326 326 324 322 322 318 321 326 332 337 339 340 341 342 342 341 325 325 324 320 320 321 322 323 325 327
325 324 324 324 325 327 333 334 333 332 332 331 332 332 330 330 331 330 327 327 324 326 322 321 324 326 331 335 336 338 339 335 338 331 323 321 319 319 319 318 319 320 321
320 320 320 319 319 321 324 327 328 328 330 331 330 330 330 330 328 328 328 326 324 324 324 321 322 325 327 329 330 335 337 339 339 332 322 321 319 318 318 317 317 317 316
317 316 317 316 315 316 317 319 320 322 324 325 328 330 329 329 328 327 325 326 326 325 323 321 321 321 323 329 328 328 328 334 334 335 332 330 324 319 318 317 318 318 314
315 315 314 315 316 316 314 317 319 319 320 321 322 324 326 327 323 324 325 325 325 322 321 318 318 318 320 321 323 326 327 328 334 337 336 337 335 333 329 318 325 319 314
314 313 314 312 315 313 306 303 307 312 313 316 316 318 321 320 318 313 313 314 318 322 321 318 316 314 321 320 323 325 327 326 325 338 339 333 334 332 333 333 325 320 313
316 313 313 313 312 313 303 301 302 307 307 309 312 314 315 314 315 318 314 311 311 309 311 320 318 319 319 322 325 326 326 328 328 329 337 331 338 332 328 317 311 311 310
311 308 307 308 307 304 298 298 299 301 301 302 303 306 308 310 312 313 314 316 319 319 317 318 321 322 323 325 327 328 327 324 325 323 339 329 329 328 333 325 308 309 310
304 302 301 298 297 299 298 296 297 298 297 298 299 300 300 302 301 299 303 304 311 316 312 306 307 307 306 305 309 324 321 317 317 321 334 328 326 326 330 333 323 309 307
296 294 295 297 298 300 298 295 296 298 296 296 297 299 299 299 297 297 301 302 306 310 312 312 317 313 307 315 304 319 324 315 321 325 323 323 324 322 320 328 332 327 322
Wind_Speed
7 8 7 8 7 8 8 7 8 6 7 9 10 11 10 10 10 7 6 14 14 12 13 13 13 13 13 15 15 15 14 15 15 15 15 15 15 13 13 13 12 11 10
7 8 8 9 9 8 7 7 8 8 9 10 10 11 11 11 11 11 9 7 13 14 15 15 14 13 13 15 16 16 15 15 15 15 15 15 16 14 15 14 13 13 12
9 8 8 7 8 8 8 7 7 7 9 9 11 11 11 12 12 11 10 10 10 17 16 16 15 14 14 14 16 16 15 15 15 15 15 16 16 16 16 15 15 14 13
6 7 8 6 7 6 7 7 7 8 9 9 8 8 9 10 11 10 10 9 10 9 13 15 15 15 15 15 16 17 17 15 15 15 16 17 17 17 16 16 16 15 14
12 9 7 6 8 9 7 7 8 9 8 8 9 9 9 9 10 10 10 10 11 10 9 12 14 14 16 17 18 18 18 17 16 16 16 18 17 17 17 17 17 17 16
12 10 10 7 7 8 9 8 3 6 7 7 9 10 9 9 10 10 10 10 11 12 11 12 7 9 15 17 18 18 17 17 16 17 17 18 18 18 18 18 18 18 18
13 11 9 10 8 8 6 7 6 7 9 9 9 10 9 11 12 12 11 11 12 11 11 11 7 8 7 19 19 19 19 18 17 16 15 16 17 18 19 20 20 19 19
12 10 9 8 8 7 6 7 7 8 9 8 8 9 11 10 9 9 10 9 10 11 12 10 10 9 8 7 11 17 16 16 16 16 14 13 16 17 19 20 20 20 19
13 11 10 9 6 7 8 9 7 5 8 9 10 9 8 10 11 11 11 9 9 9 10 10 10 8 7 8 12 10 16 16 18 17 16 12 14 16 17 19 19 20 20
12 12 12 12 8 7 7 4 5 6 8 8 8 8 9 10 11 13 11 11 12 12 9 10 10 8 8 9 11 11 6 11 12 14 14 13 14 17 17 18 19 20 20
10 10 10 9 8 6 5 5 4 5 7 8 9 9 9 9 9 9 13 11 9 10 12 7 6 9 9 10 9 9 12 11 13 14 12 11 12 15 18 17 19 19 20
7 9 9 7 6 6 5 5 6 7 7 7 9 9 10 10 10 10 11 11 12 10 10 12 10 6 9 7 8 9 11 8 7 6 9 9 13 14 14 14 17 18 20
8 8 7 7 7 7 6 6 6 6 7 8 7 8 9 10 10 10 11 11 12 11 9 10 11 8 8 5 5 8 11 10 10 9 9 9 11 14 15 15 18 18 17
5 6 8 7 8 9 8 8 8 8 9 9 10 9 9 10 9 10 11 11 11 11 9 11 10 10 7 9 6 9 4 9 10 9 10 11 12 13 11 11 12 12 13
8 8 7 8 10 10 10 10 10 9 9 9 9 10 10 10 9 9 9 10 11 12 11 10 11 11 12 5 7 10 4 3 7 12 10 10 13 14 13 13 11 12 12
10 11 10 11 10 11 11 11 11 12 12 11 10 12 11 10 10 9 9 10 10 11 13 11 9 11 11 10 4 3 13 10 10 12 13 13 15 14 14 13 13 13 12
10 11 11 11 13 13 13 12 14 15 15 13 14 14 15 13 11 11 10 10 10 10 12 10 10 8 10 11 12 9 11 12 10 15 18 17 17 16 15 14 14 13 13
12 13 13 14 15 16 14 15 17 17 18 18 18 18 18 13 16 15 12 14 13 11 11 14 12 11 11 12 13 13 11 12 12 11 18 19 19 19 16 15 14 14 13
14 15 16 17 17 17 16 16 17 18 19 19 19 20 19 18 17 14 14 12 11 9 10 11 10 10 9 9 12 13 12 11 13 15 12 15 16 16 16 15 14 13 12
16 16 16 18 19 19 19 18 18 18 18 18 19 19 20 20 19 18 16 16 14 13 13 12 12 11 11 8 9 11 10 10 12 11 9 3 13 14 13 12 12 13 11
16 17 18 18 18 16 15 17 16 17 17 18 19 19 19 20 23 21 14 16 17 15 13 13 13 11 10 9 11 9 9 10 13 7 7 4 7 7 8 11 11 13 12
16 17 18 19 18 14 15 8 10 15 19 19 18 18 18 18 22 17 18 21 19 15 15 13 12 12 11 10 11 12 10 10 9 9 7 9 6 6 5 8 14 15 15
14 16 18 18 18 17 16 15 13 15 17 18 19 17 18 17 18 19 17 22 22 21 21 16 15 14 13 11 13 13 13 10 11 9 10 8 6 5 5 7 13 11 8
15 15 15 15 15 13 19 21 13 11 12 13 14 16 17 18 18 18 19 18 17 19 14 12 16 14 14 14 14 12 13 8 12 13 13 7 3 4 10 8 12 12 9
13 15 16 16 16 18 18 13 16 16 16 18 16 17 18 18 17 14 15 16 16 12 6 6 15 15 15 15 12 9 11 5 9 9 8 5 8 7 6 9 8 12 9
16 13 15 15 19 18 20 18 17 10 13 13 14 15 15 14 16 19 17 16 17 11 5 8 16 12 12 12 14 12 9 9 7 4 3 6 6 5 5 4 9 7 7
Wind_Direction
225 211 246 244 222 211 209 231 232 256 241 240 251 253 257 266 275 276 275 172 184 202 223 238 238 234 237 237 229 227 225 226 218 215 223 228 228 219 221 221 224 220 216
227 228 218 231 244 240 243 230 229 236 223 240 250 249 258 262 259 255 261 233 189 199 212 222 230 233 228 232 231 225 221 226 224 217 220 224 230 223 221 222 224 224 215
240 236 239 232 245 242 253 263 266 251 257 255 257 264 268 259 255 256 253 253 218 208 208 215 217 220 222 223 224 224 226 225 226 222 217 221 224 226 220 219 223 221 221
229 225 241 238 251 240 241 239 251 249 251 253 254 269 273 258 254 255 252 265 262 259 211 222 209 215 212 213 220 222 223 223 225 219 219 221 221 223 222 219 219 222 221
212 222 229 232 207 244 253 242 242 249 266 270 278 263 249 258 275 275 265 253 257 274 278 211 215 214 219 209 211 221 224 224 221 220 217 221 221 220 221 219 217 218 220
206 199 231 249 205 231 239 238 255 288 305 292 296 304 308 295 286 274 259 258 254 257 250 253 233 230 221 227 215 210 228 232 228 224 218 218 218 215 216 216 217 217 216
211 201 227 203 217 258 281 321 278 245 266 268 265 265 262 250 238 246 252 266 273 252 249 250 239 261 252 224 220 215 213 226 236 237 229 222 221 214 214 212 214 216 215
213 210 224 239 204 240 206 240 250 272 279 269 265 298 288 283 261 239 230 240 257 277 270 259 250 244 265 283 224 223 219 220 229 240 236 225 229 224 215 216 216 214 213
208 206 206 236 232 218 241 204 220 236 271 294 306 291 293 287 325 317 314 289 285 249 262 250 259 255 251 262 280 212 219 210 221 228 236 226 224 230 225 219 219 219 214
221 207 208 207 213 218 220 221 228 247 228 261 273 267 255 288 295 297 299 311 309 296 251 250 251 258 247 248 256 272 231 221 221 236 243 239 234 228 222 219 218 221 218
220 213 199 196 197 217 214 244 274 238 270 266 279 286 287 284 259 256 278 287 291 297 300 284 272 228 244 255 257 248 248 210 208 220 229 240 256 259 229 208 218 223 221
204 213 191 193 197 221 241 219 224 242 258 289 299 305 293 287 288 289 288 291 289 290 288 307 295 291 243 228 244 292 284 245 231 221 230 229 250 250 247 221 214 218 223
197 175 212 190 201 215 250 233 223 245 258 258 265 274 285 284 285 287 291 293 297 302 305 299 287 265 275 258 218 220 263 235 238 223 226 232 244 247 248 249 217 207 213
211 162 187 235 226 246 218 229 229 232 243 233 234 247 270 279 279 274 274 282 285 282 274 279 288 295 274 253 260 139 250 223 233 238 233 228 230 240 236 236 208 201 208
296 276 271 236 244 246 243 233 233 244 246 240 249 246 248 267 272 272 278 287 292 293 286 290 296 301 297 34 353 316 227 276 241 249 232 228 232 233 229 220 222 213 212
296 297 291 286 259 257 254 250 250 242 239 241 244 247 248 252 264 266 263 270 275 281 285 291 285 294 304 308 281 221 292 267 232 225 232 224 233 234 229 221 217 219 216
287 280 276 272 263 259 255 252 256 263 264 257 239 246 250 257 254 259 269 268 267 270 280 286 298 293 293 290 292 278 248 256 256 218 219 213 222 229 232 222 217 217 214
279 275 273 270 267 263 258 249 246 251 249 247 250 249 250 240 242 242 248 256 263 272 281 283 279 277 268 281 276 278 276 275 276 262 214 207 210 219 220 221 217 213 210
279 278 277 274 272 268 266 262 260 259 255 254 252 251 249 246 251 253 253 256 259 262 270 275 283 294 289 287 292 282 263 251 256 251 195 213 213 209 214 214 209 202 193
281 280 278 277 275 274 272 270 267 265 261 259 257 253 250 248 250 248 254 253 257 257 261 265 268 266 263 270 276 279 281 262 243 261 250 195 183 192 199 205 203 199 194
281 282 281 279 278 278 274 273 277 279 278 273 268 268 260 248 241 245 246 240 245 253 248 253 256 267 269 282 279 279 283 279 282 254 249 226 198 189 193 199 208 198 198
278 281 280 280 278 276 283 0 334 307 295 287 284 283 285 265 256 255 245 243 249 254 258 270 277 271 282 278 278 279 280 276 267 245 217 217 197 208 212 190 193 170 190
288 284 282 284 291 295 307 315 320 300 293 289 287 283 281 273 275 272 249 230 234 231 231 248 257 264 272 277 279 277 269 266 270 267 198 200 184 225 122 108 99 115 142
297 301 297 291 288 294 304 298 299 291 282 281 284 283 276 274 280 288 285 291 272 244 223 231 238 246 254 255 254 264 275 301 295 286 243 175 151 238 151 122 120 120 131
295 290 297 296 285 277 266 265 272 274 269 269 270 270 274 275 269 270 278 282 273 260 236 216 264 245 235 249 252 275 275 262 247 244 213 204 172 176 168 141 114 103 109
297 286 277 272 275 273 269 265 253 256 263 262 259 260 265 273 279 275 264 257 261 236 227 251 239 242 229 245 232 241 259 253 303 206 345 235 126 180 146 159 132 148 143